7 * 24
多渠道服务支持
STARLINK-36899(NORAD编号68058)是美国SpaceX公司星链(Starlink)低轨互联网星座的组成卫星,隶属于星链第二代组网任务。该卫星运行于近地轨道,属于星链V2.0 mini批次,采用紧凑平板设计,搭载Ku/Ka频段通信载荷,具备基础星间链路能力,可为全球用户提供低时延宽带互联网接入服务。作为星链万颗星座规模部署的一部分,它填补偏远地区、海洋和航空等场景的网络覆盖空白,当前在轨状态正常,是SpaceX构建全球天基通信系统的关键节点之一,也支撑星链手机直连等新兴业务的拓展。
美国
(US)
| 数据来源 | 国际轨道数据 |
| 星历时间: | 2026-07-27T07:43:01+0800 1天前 查看轨道信息 |
| 半长轴: | 6840.809km |
| 偏心率: | 0.0001278 |
| 轨道倾角: | 53.157° |
| 近地点辐角 | 100.418° |
| 升交点赤经 | 120.866° |
| 平近点角 | 259.696° |
| 近地点: | 461.797km |
| 远地点: | 463.547km |
| 周期: | 93.847分钟 |
| 每日圈数: | 15.344106 |